Fes-Sais, Morocco

6:14 PM WEST on September 21, 2017 (GMT +0100)
Fes-Sais

Weather History for GMFF - March, 2013

Change the Weather History Date:

Tuesday, March 12, 2013

  Actual Average Record
Temperature  
Mean Temperature 49 °F -  
Max Temperature 63 °F 67 °F 78 °F (2002)
Min Temperature 35 °F 43 °F 28 °F (2007)
Degree Days  
Heating Degree Days 16    
Moisture  
Dew Point 45 °F    
Average Humidity 71    
Maximum Humidity 82    
Minimum Humidity 50    
Precipitation  
Precipitation 0.08 in 0.12 in - ()
Sea Level Pressure  
Sea Level Pressure 29.92 in    
Wind  
Wind Speed 7 mph ()    
Max Wind Speed 24 mph    
Max Gust Speed 41 mph    
Visibility 6.1 miles    
Events Rain    
Averages and records for this station are not official NWS values.
T = Trace of Precipitation, MM = Missing Value Source: Averaged Metar Reports

Daily Weather History Graph

Daily Weather History Graph

Search for Another Location

Airport or City:

Trip Planner

Search our weather history database for the weather conditions in past years. The results will help you decide how hot, cold, wet, or windy it might be!

Date:

Astronomy

Mar. 12, 2013 Rise Set
Actual Time 6:34 AM WET 6:25 PM WET
Civil Twilight 6:09 AM WET 6:50 PM WET
Nautical Twilight 5:40 AM WET 7:19 PM WET
Astronomical Twilight 5:11 AM WET 7:48 PM WET
Moon 6:36 AM WET (3/12) 7:20 PM WET (3/12)
Length of Visible Light 12h 40m
Length of Day
11h 51m
New Moon, 1% of the Moon is Illuminated
Mar 12
New Moon
Mar 19
First Quarter
Mar 27
Full
Apr 3
Last Quarter
Apr 10
New

Hourly Weather History & Observations

Time (WET) Temp. Dew Point Humidity Pressure Visibility Wind Dir Wind Speed Gust Speed Precip Events Conditions
12:00 AM 52 °F 44 °F 68% 30.09 in 6 mi WSW 3.5 mph - -   Partly Cloudy
12:00 AM 51.8 °F 42.8 °F 71% 30.04 in 6.2 mi West 4.6 mph - N/A   Scattered Clouds
1:00 AM 51.8 °F 44.6 °F 76% 30.01 in 6.2 mi Variable 2.3 mph - N/A   Scattered Clouds
2:00 AM 48.2 °F 42.8 °F 82% 29.98 in 6.2 mi West 4.6 mph - N/A   Scattered Clouds
3:00 AM 47 °F 41 °F 73% 30.01 in 6 mi SW 4.6 mph - -   Partly Cloudy
3:00 AM 48.2 °F 41.0 °F 76% 29.98 in 6.2 mi SW 4.6 mph - N/A   Unknown
3:30 AM 48.2 °F 41.0 °F 76% 29.95 in 6.2 mi SW 4.6 mph - N/A   Scattered Clouds
4:00 AM 48.2 °F 41.0 °F 76% 29.95 in 6.2 mi SSW 4.6 mph - N/A   Scattered Clouds
5:00 AM 48.2 °F 42.8 °F 82% 29.95 in 6.2 mi SSW 4.6 mph - N/A   Unknown
6:00 AM 49 °F 43 °F 72% 29.97 in 6 mi SW 3.5 mph - -   Partly Cloudy
6:00 AM 50.0 °F 42.8 °F 76% 29.95 in 6.2 mi Variable 3.5 mph - N/A   Unknown
6:30 AM 50.0 °F 42.8 °F 76% 29.95 in 6.2 mi Variable 2.3 mph - N/A   Scattered Clouds
7:00 AM 50.0 °F 42.8 °F 76% 29.95 in 6.2 mi North 4.6 mph 41.4 mph N/A   Scattered Clouds
8:00 AM 50.0 °F 42.8 °F 76% 29.95 in 6.2 mi WNW 2.3 mph - N/A   Scattered Clouds
9:00 AM 53 °F 46 °F 68% 29.97 in 6 mi West 2.3 mph - -   Partly Cloudy
10:00 AM 53.6 °F 46.4 °F 77% 29.95 in 6.2 mi NW 6.9 mph - N/A   Mostly Cloudy
11:00 AM 55.4 °F 46.4 °F 72% 29.95 in 6.2 mi NW 8.1 mph - N/A   Mostly Cloudy
12:00 PM 55 °F 48 °F 69% 29.94 in 6 mi NW 8.1 mph - - Rain Light Rain
12:30 PM 57.2 °F 50.0 °F 77% 29.89 in 6.2 mi NW 4.6 mph - N/A   Mostly Cloudy
1:30 PM 59.0 °F 46.4 °F 63% 29.86 in 6.2 mi WSW 16.1 mph - N/A   Mostly Cloudy
3:00 PM 59 °F 48 °F 58% 29.83 in 6 mi SW 16.1 mph - - Rain Light Rain
3:00 PM 59.0 °F 50.0 °F 72% 29.83 in 6.2 mi SW 16.1 mph - N/A   Mostly Cloudy
4:00 PM 59.0 °F 48.2 °F 67% 29.83 in 6.2 mi SW 20.7 mph - N/A   Mostly Cloudy
5:00 PM 59.0 °F 46.4 °F 63% 29.80 in 6.2 mi SW 18.4 mph - N/A   Mostly Cloudy
6:00 PM 60 °F 46 °F 50% 29.79 in 6 mi SW 24.2 mph - -   Partly Cloudy
6:00 PM 60.8 °F 46.4 °F 59% 29.80 in 6.2 mi SW 24.2 mph - N/A   Mostly Cloudy
8:00 PM 60.8 °F 48.2 °F 63% 29.80 in 6.2 mi WSW 21.9 mph 36.8 mph N/A   Mostly Cloudy
10:30 PM 59.0 °F 48.2 °F 67% 29.80 in 6.2 mi SW 23.0 mph - N/A Rain Light Rain
11:00 PM 57.2 °F 51.8 °F 82% 29.80 in 5.6 mi SW 23.0 mph - N/A Rain Rain